Weather History for Watertown, NY

Change the Weather History Date:

Sunday, December 22, 2013

  Actual Average Record
Temperature  
Mean Temperature 29 °F 24 °F  
Max Temperature 34 °F 33 °F 64 °F (1949)
Min Temperature 24 °F 15 °F -29 °F (1989)
Degree Days  
Heating Degree Days 36 41  
Month to date heating degree days 880 815  
Since 1 July heating degree days 2455 2414  
Cooling Degree Days 0 0  
Month to date cooling degree days 0 0  
Year to date cooling degree days 481 362  
Moisture  
Dew Point 26 °F    
Average Humidity 92    
Maximum Humidity 100    
Minimum Humidity 84    
Precipitation  
Precipitation 0.80 in 0.10 in 0.91 in (1951)
Month to date precipitation 2.27 2.28  
Year to date precipitation 34.61 35.21  
Sea Level Pressure  
Sea Level Pressure 29.78 in    
Wind  
Wind Speed 13 mph (NE)    
Max Wind Speed 29 mph    
Max Gust Speed 37 mph    
Visibility 4 miles    
Events Rain , Snow    
T = Trace of Precipitation, MM = Missing Value Source: NWS Daily Summary

Daily Weather History Graph

Daily Weather History Graph

Search for Another Location

Airport:

Trip Planner

Search our weather history database for the weather conditions in past years. The results will help you decide how hot, cold, wet, or windy it might be!

Date:

Astronomy

Dec. 22, 2013 Rise Set
Actual Time 7:36 AM EST 4:29 PM EST
Civil Twilight 7:03 AM EST 5:02 PM EST
Nautical Twilight 6:26 AM EST 5:39 PM EST
Astronomical Twilight 5:51 AM EST 6:14 PM EST
Moon 9:50 PM EST (12/22) 10:22 AM EST (12/22)
Length of Visible Light 9h 59m
Length of Day
8h 53m
Waning Gibbous, 77% of the Moon is Illuminated
Dec 22
Waning Gibbous
Dec 25
Last Quarter
Jan 1
New
Jan 7
First Quarter
Jan 15
Full

Hourly Weather History & Observations

Time (EST) Temp. Windchill Dew Point Humidity Pressure Visibility Wind Dir Wind Speed Gust Speed Precip Events Conditions
12:08 AM 28.4 °F 16.2 °F 24.8 °F 86% 29.88 in 3.0 mi NE 17.3 mph - 0.00 in Snow Light Snow
12:20 AM 28.4 °F 15.4 °F 24.8 °F 86% 29.88 in 2.5 mi ENE 19.6 mph 27.6 mph 0.01 in   Overcast
12:28 AM 28.4 °F 16.2 °F 24.8 °F 86% 29.87 in 3.0 mi NE 17.3 mph - 0.01 in   Overcast
12:44 AM 28.4 °F 14.4 °F 24.8 °F 86% 29.86 in 4.0 mi NE 23.0 mph 26.5 mph 0.02 in Rain Light Freezing Rain
12:56 AM 28.0 °F 15.7 °F 24.1 °F 85% 29.88 in 5.0 mi NE 17.3 mph - 0.02 in Rain Light Freezing Rain
1:23 AM 26.6 °F 11.7 °F 24.8 °F 93% 29.82 in 4.0 mi ENE 24.2 mph 31.1 mph 0.00 in   Overcast
1:30 AM 26.6 °F 13.4 °F 24.8 °F 93% 29.83 in 4.0 mi NE 18.4 mph 31.1 mph 0.00 in Rain Light Freezing Rain
1:56 AM 28.0 °F 13.9 °F 25.0 °F 88% 29.83 in 3.0 mi NE 23.0 mph 29.9 mph 0.02 in Rain Light Freezing Rain
2:13 AM 28.4 °F 14.7 °F 24.8 °F 86% 29.78 in 2.5 mi NE 21.9 mph 34.5 mph 0.02 in Rain Light Freezing Rain
2:35 AM 28.4 °F 15.8 °F 24.8 °F 86% 29.75 in 2.5 mi NE 18.4 mph 28.8 mph 0.03 in Snow Light Snow
2:40 AM 28.4 °F 15.4 °F 24.8 °F 86% 29.74 in 3.0 mi NE 19.6 mph 27.6 mph 0.03 in Snow Light Snow
2:56 AM 28.0 °F 14.6 °F 25.0 °F 88% 29.76 in 4.0 mi NE 20.7 mph 28.8 mph 0.04 in   Overcast
3:04 AM 28.4 °F 15.4 °F 24.8 °F 86% 29.73 in 2.5 mi NE 19.6 mph 27.6 mph 0.02 in Rain Light Freezing Rain
3:16 AM 28.4 °F 14.7 °F 26.6 °F 93% 29.74 in 2.0 mi NE 21.9 mph 34.5 mph 0.05 in Rain Light Freezing Rain
3:25 AM 30.2 °F 17.1 °F 26.6 °F 86% 29.73 in 1.5 mi NE 21.9 mph 33.4 mph 0.11 in Rain Light Freezing Rain
3:56 AM 30.9 °F 16.9 °F 28.0 °F 89% 29.70 in 1.2 mi NE 26.5 mph 34.5 mph 0.26 in Rain Light Freezing Rain
4:26 AM 32.0 °F 18.9 °F 30.2 °F 93% 29.65 in 2.0 mi NE 24.2 mph 33.4 mph 0.20 in Rain Light Freezing Rain
4:47 AM 32.0 °F 20.5 °F 30.2 °F 93% 29.66 in 3.0 mi NE 18.4 mph 31.1 mph 0.25 in Rain Light Freezing Rain
4:56 AM 32.0 °F 18.6 °F 30.9 °F 96% 29.66 in 3.0 mi NE 25.3 mph 35.7 mph 0.27 in Rain Light Freezing Rain
5:03 AM 32.0 °F 19.2 °F 30.2 °F 93% 29.65 in 2.5 mi NE 23.0 mph 33.4 mph 0.00 in Rain Light Freezing Rain
5:17 AM 32.0 °F 18.9 °F 30.2 °F 93% 29.66 in 1.8 mi NE 24.2 mph 33.4 mph 0.03 in Rain Light Freezing Rain
5:26 AM 32.0 °F 20.5 °F 30.2 °F 93% 29.68 in 2.0 mi NNE 18.4 mph 34.5 mph 0.05 in Rain Light Freezing Rain
5:34 AM 32.0 °F 20.8 °F 30.2 °F 93% 29.70 in 1.8 mi North 17.3 mph 27.6 mph 0.07 in Rain Light Freezing Rain
5:56 AM 32.0 °F 19.5 °F 28.9 °F 88% 29.69 in 2.5 mi NE 21.9 mph 28.8 mph 0.10 in Rain Light Freezing Rain
6:05 AM 32.0 °F 20.1 °F 28.4 °F 87% 29.67 in 4.0 mi NE 19.6 mph 28.8 mph 0.00 in Rain Light Freezing Rain
6:17 AM 30.2 °F 16.8 °F 28.4 °F 93% 29.66 in 4.0 mi NE 23.0 mph 29.9 mph 0.00 in   Overcast
6:56 AM 30.9 °F 18.7 °F 28.0 °F 89% 29.70 in 10.0 mi NE 19.6 mph - 0.00 in   Overcast
7:56 AM 28.9 °F 17.7 °F 27.0 °F 92% 29.74 in 10.0 mi NNE 15.0 mph 24.2 mph N/A   Overcast
8:56 AM 27.0 °F 14.3 °F 24.1 °F 89% 29.78 in 10.0 mi NNE 17.3 mph - N/A   Overcast
9:56 AM 26.1 °F 12.0 °F 23.0 °F 88% 29.76 in 10.0 mi NE 20.7 mph - N/A   Overcast
10:56 AM 25.0 °F 11.3 °F 21.9 °F 88% 29.75 in 10.0 mi NE 18.4 mph - N/A   Overcast
11:56 AM 25.0 °F 12.2 °F 21.9 °F 88% 29.69 in 10.0 mi ENE 16.1 mph 24.2 mph N/A   Overcast
12:56 PM 26.1 °F 14.5 °F 23.0 °F 88% 29.68 in 10.0 mi NNE 13.8 mph - N/A   Overcast
1:56 PM 25.0 °F 14.2 °F 21.9 °F 88% 29.73 in 10.0 mi NNE 11.5 mph - N/A   Overcast
2:30 PM 24.8 °F 14.6 °F 21.2 °F 86% 29.73 in 1.8 mi NNE 10.4 mph - 0.02 in   Overcast
2:37 PM 24.8 °F 13.4 °F 23.0 °F 93% 29.72 in 1.0 mi NNE 12.7 mph - 0.03 in Rain Light Freezing Rain
2:42 PM 24.8 °F 12.9 °F 23.0 °F 93% 29.71 in 2.0 mi NE 13.8 mph - 0.03 in Rain Light Freezing Rain
2:54 PM 26.6 °F 16.8 °F 23.0 °F 86% 29.72 in 1.2 mi ENE 10.4 mph - 0.04 in Rain Light Freezing Rain
2:56 PM 26.1 °F 16.8 °F 24.1 °F 92% 29.74 in 1.0 mi ENE 9.2 mph - 0.05 in Rain Light Freezing Rain
3:06 PM 26.6 °F 17.5 °F 24.8 °F 93% 29.72 in 1.0 mi ENE 9.2 mph - 0.01 in Rain Light Freezing Rain
3:22 PM 26.6 °F 15.7 °F 24.8 °F 93% 29.73 in 3.0 mi NE 12.7 mph - 0.01 in Rain Light Freezing Rain
3:35 PM 26.6 °F 17.5 °F 24.8 °F 93% 29.74 in 2.0 mi NE 9.2 mph - 0.02 in   Overcast
3:43 PM 26.6 °F 19.1 °F 24.8 °F 93% 29.75 in 1.2 mi NNE 6.9 mph - 0.03 in   Overcast
3:56 PM 27.0 °F 17.3 °F 25.0 °F 92% 29.78 in 1.5 mi NNE 10.4 mph - 0.04 in   Overcast
4:10 PM 26.6 °F 16.8 °F 24.8 °F 93% 29.76 in 3.0 mi NE 10.4 mph - 0.00 in   Overcast
4:56 PM 28.0 °F 20.8 °F 26.1 °F 92% 29.81 in 7.0 mi North 6.9 mph - 0.00 in   Overcast
5:56 PM 28.0 °F 21.7 °F 26.1 °F 92% 29.85 in 10.0 mi East 5.8 mph - 0.00 in   Overcast
6:56 PM 28.0 °F 24.2 °F 26.1 °F 92% 29.89 in 10.0 mi NE 3.5 mph - N/A   Overcast
7:56 PM 28.0 °F 24.2 °F 26.1 °F 92% 29.91 in 10.0 mi ENE 3.5 mph - N/A   Overcast
8:56 PM 30.0 °F - 28.0 °F 92% 29.94 in 9.0 mi Calm Calm - N/A   Overcast
9:56 PM 28.9 °F - 28.0 °F 96% 29.96 in 7.0 mi Calm Calm - N/A   Overcast
10:56 PM 30.9 °F - 28.9 °F 92% 29.97 in 5.0 mi Calm Calm - N/A   Overcast
11:05 PM 30.2 °F - 28.4 °F 93% 29.95 in 5.0 mi Calm Calm - N/A   Overcast
11:27 PM 30.2 °F 26.7 °F 30.2 °F 100% 29.97 in 5.0 mi SSE 3.5 mph - N/A   Overcast
11:35 PM 33.8 °F - 30.2 °F 87% 29.96 in 5.0 mi Calm Calm - N/A   Overcast
11:56 PM 34.0 °F 31.0 °F 32.0 °F 92% 29.97 in 7.0 mi South 3.5 mph - N/A   Overcast